Location: Le Domaine
(47.0333°N, 76.5361°W)
Time: 03:32:45
(UTC-05:00)

Courier 1B Rocket - Pass Details

Date: 20 November 2019
Orbit: 920 x 1202 km, 28.2° (Epoch: 13 December)

Event Time Altitude Azimuth Distance (km) Brightness Sun altitude
Rises 17:31:09 0° 243° (WSW) 3,910 10.1 -10.9°
Reaches altitude 10° 17:35:07 10° 223° (SW) 3,006 8.5 -11.6°
Maximum altitude 17:39:17 16° 189° (S) 2,634 7.6 -12.3°
Drops below altitude 10° 17:43:32 10° 154° (SSE) 3,091 7.5 -13.0°
Sets 17:47:43 0° 135° (SE) 4,079 7.9 -13.7°
